Location: DaVinci Observatory
(43.1080°N, 78.6453°W)
Time: 22:23:02
(UTC-05:00)

Vanguard 2 - Visible Passes

Search period start: 12 December 2017 00:00
Search period end: 22 December 2017 00:00
Orbit: 553 x 2939 km, 32.9° (Epoch: 12 December)

Date Brightness Start Highest point End Pass type
(mag) Time Alt. Az. Time Alt. Az. Time Alt. Az.
12 Dec 9.0 17:58:23 10° WSW 18:02:20 23° S 18:05:37 10° SE visible
13 Dec 9.1 18:16:24 10° WSW 18:20:13 22° S 18:23:05 12° SE visible
14 Dec 9.2 18:34:33 10° WSW 18:38:03 20° SSW 18:40:23 13° SSE visible
15 Dec 9.3 18:52:55 10° WSW 18:55:50 16° SSW 18:57:45 12° S visible
16 Dec 9.6 19:11:43 10° SW 19:13:34 12° SSW 19:15:09 10° S visible
17 Dec 9.5 17:18:47 10° WSW 17:24:05 26° SSW 17:27:59 10° SE visible
18 Dec 9.6 17:37:01 10° WSW 17:41:53 23° SSW 17:45:34 10° SSE visible
19 Dec 9.8 17:55:26 10° WSW 17:59:36 19° SSW 18:02:54 10° SSE visible
20 Dec 10.0 18:14:13 10° WSW 18:17:14 14° SSW 18:19:48 10° S visible
